Regional Weather Roundup
Issued by NWS Grand Forks, ND

Home | Current Version | Previous Version | Graphics & Text | Print | Product List | Glossary On
Versions: 1 2 3 4 5 6 7 8 9 10 11 12 13 14 15 16 17 18 19 20 21 22 23 24 25 26 27 28 29 30 31 32 33 34 35 36 37 38 39 40 41 42 43 44 45 46 47 48 49 50
000
ASUS43 KFGF 161031
RWRFGF
PRAIRIE TO PINES  WEATHER ROUNDUP
NATIONAL WEATHER SERVICE EASTERN NORTH DAKOTA/GRAND FORKS ND
500 AM CDT MON OCT 16 2017

 **SATELLITE DATA USED TO AUGMENT SKY COVER AT AUTOMATED STATIONS**
 *****  WEATHER ACROSS EASTERN NORTH DAKOTA  *****

CITY           SKY/WX    TMP DP  RH WIND       PRES   REMARKS
GRAND FORKS    FAIR      33  29  85 S9        30.08F
GRAND FRKS AFB FAIR      34  29  79 SW8       30.07F
DEVILS LAKE    FAIR      44  34  67 SW15      30.04F
FARGO          FAIR      33  30  88 S9        30.14S
WAHPETON ARPT  NOT AVBL
$$

 ***** WEATHER ACROSS CENTRAL AND WESTERN NORTH DAKOTA  *****

CITY           SKY/WX    TMP DP  RH WIND       PRES   REMARKS
BISMARCK       FAIR      32  29  88 E6        30.09F
MINOT          FAIR      46  31  55 S16       29.94F
JAMESTOWN      FAIR      33  28  81 S7        30.10F
MINOT AFB      FAIR      42  30  64 SW16      29.92F
GARRISON         N/A     37  32  82 S7        30.01F
WILLISTON      FAIR      33  29  85 SW9       29.96F
DICKINSON      FAIR      41  28  60 SW15      30.01F
HETTINGER      FAIR      39  27  62 W5        30.10F
$$

 *****  OTHER AIRPORT OBSERVATIONS IN OUR AREA  *****

CITY           SKY/WX    TMP DP  RH WIND       PRES   REMARKS
WALHALLA       FAIR     N/A N/A N/A CALM      30.01F
GRAFTON AIRPOR NOT AVBL
VALLEY CITY AR NOT AVBL
CANDO          FAIR      36  32  87 S6        30.02F
CAVALIER APRT  FAIR      36  30  80 S7        30.01F
GWINNER          N/A     32  30  93 SW9       30.16S WCI  24
SHEYENNE NWR     N/A     31  30  96 SW3       29.95S
ROLLA          FLURRIES  32  28  86 S7        29.98F
 ***** THE ABOVE OBSERVATIONS ARE NON NWS ARE NOT QUALITY
       CONTROLLED AND MAY MIS-REPORT RAIN FOR SNOW...
$$

  *****  WEATHER ACROSS NORTHERN MINNESOTA  *****

CITY           SKY/WX    TMP DP  RH WIND       PRES   REMARKS
FLAG ISLAND    FAIR      36  32  87 SW9       30.02F
WARROAD        FAIR      34  30  86 S3        30.05F
ROSEAU           N/A     36  30  80 SW8       30.05F
HALLOCK        FAIR      28  27  93 S8        30.04F WCI  20
THF RVR FALLS  FAIR      33  29  85 S8        30.10F
BAUDETTE       FAIR      31  29  92 S3        30.07F
WASKISH        FAIR      36  34  93 CALM      30.09S
CROOKSTON      FAIR      28  27  93 S8        30.11F WCI  20
STEPHEN NDAWN    N/A     32  28  86 S6          N/A
GREENBUSH NDAW   N/A     34  30  86 S5          N/A
$$
  *****  WEATHER ACROSS CENTRAL AND WEST MINNESOTA  *****

CITY           SKY/WX    TMP DP  RH WIND       PRES   REMARKS
FOSSTON        FAIR      30  28  93 S7        30.13S WCI  23
BEMIDJI        FAIR      35  32  88 SW7       30.12S
PARK RAPIDS    FAIR      35  32  88 CALM      30.15R
ELBOW LAKE     FAIR      31  31  98 CALM      30.19R
WADENA         FAIR      34  34 100 SW5       30.16R
DETROIT LAKES  FAIR      36  32  87 S5        30.15S
MOORHEAD       FAIR      34  30  86 S7        30.15F
FERGUS FALLS   FAIR      34  34 100 S5        30.19S
MORRIS MN      FAIR      34  30  86 CALM      30.19S
STAPLES        FAIR      34  34 100 CALM      30.17S
$$
  *****  WEATHER ELSEWHERE ACROSS MINNESOTA  *****

CITY           SKY/WX    TMP DP  RH WIND       PRES   REMARKS
DULUTH         FAIR      33  33 100 W8        30.14S
INTRNTL FALLS  FAIR      30  27  88 SW6       30.08S WCI  24
ELY            FAIR      34  34 100 SW5       30.11S
CLOQUET        FAIR      36  34  93 W3        30.15S
WHEATON        FAIR      36  30  80 S3        30.20S
BRAINERD       FAIR      34  33  96 S5        30.17S
HIBBING        FAIR      25  24  96 CALM      30.12F
ALEXANDRIA     FAIR      36  33  89 SW5       30.19F
SAINT CLOUD    FAIR      32  32 100 CALM      30.19F
MINNEAPOLIS    FAIR      41  38  89 S5        30.22F
$$

  *****  WEATHER ACROSS SOUTH DAKOTA  *****

CITY           SKY/WX    TMP DP  RH WIND       PRES   REMARKS
SIOUX FALLS    FAIR      35  32  88 CALM      30.27F
BROOKINGS      FAIR      34  31  88 SE3       30.25F
WATERTOWN      FAIR      32  30  92 S6        30.21S
HURON          FAIR      33  31  92 S5        30.22F
SISSETON         N/A     41  34  76 SW10      30.17F
ABERDEEN       FAIR      26  25  96 S7        30.19F WCI  18
MITCHELL       FAIR      35  33  92 S3        30.25F
PIERRE         FAIR      34  31  88 CALM      30.17F
MOBRIDGE       FAIR      36  31  82 SE8       30.12F
RAPID CITY     FAIR      33  26  75 CALM      30.16F
$$

  *****  SOME WEATHER IN NEARBY STATES *****

CITY           SKY/WX    TMP DP  RH WIND       PRES   REMARKS
GLASGOW MT     FAIR      46  33  60 W6        29.96F
GREAT FALLS MT FAIR      54  26  34 SW22G32   30.06F
CHEYENNE WY    FAIR      39  18  42 S9        30.33F
SCOTTSBLUFF NE FAIR      28  24  85 N5        30.26F WCI  23
OMAHA NE       FAIR      39  34  82 SE7       30.33S
DES MOINES IA  FAIR      42  35  76 SW5       30.30S
DAVENPORT IA   FAIR      39  37  92 SW3       30.31R
CHICAGO IL     FAIR      44  39  82 W7        30.27R
EAU CLAIRE WI  FAIR      37  35  92 CALM      30.22R
LA CROSSE WI   FAIR      40  39  97 SE6       30.25R
$$

  *****  SOME NATIONAL WEATHER *****

CITY           SKY/WX    TMP DP  RH WIND       PRES   REMARKS
LA GUARDIA NY  CLOUDY    62  51  67 NW17G26   29.88R
RALEIGH NC     MOCLDY    66  65  96 SW5       29.98R
ATLANTA GA     LGT RAIN  63  62  97 NW10      30.05R
NEW ORLEANS LA CLOUDY    71  68  90 N12G22    30.06R
OKLAHOMA CITY  FAIR      46  40  79 N6        30.42R
ALBUQUERQUE NM FAIR      45  26  47 N9        30.47S
SALT LAKE CITY FAIR      37  28  70 SE5       30.41S
LOS ANGELES CA FAIR      69  41  36 CALM      30.06S
BOISE ID       FAIR      38  28  67 SE3       30.35S
SEATTLE WA     FAIR      47  44  90 SE7       30.24F
$$

*** WEATHER ACROSS MANITOBA...SASKATCHEWAN AND ONTARIO ***
                ***ONTARIO***

CITY           SKY/WX    TMP DP  RH WIND       PRES   REMARKS
GERALDTON      CLOUDY    36  30  80 SW8       29.99S
THUNDER BAY    PTCLDY    28  28 100 W3        30.08S
SIOUX LOOKOUT  CLOUDY    39  34  81 W6        30.00S
TORONTO        MOCLDY    41  36  81 NW7       30.13R
BIG TROUT LK   PTCLDY    36  34  93 W9        29.86F
PICKLE LAKE    NOT AVBL
DRYDEN         MOCLDY    36  34  93 SW7       30.02R
KENORA         CLEAR     36  34  93 SW7       30.01
$$
                *** MANITOBA***

CITY           SKY/WX    TMP DP  RH WIND       PRES   REMARKS
BRANDON        CLEAR     23  21  93 VRB2      29.91F
DAUPHIN        CLEAR     45  28  53 SW9       29.82F
ISLAND LAKE    PTCLDY    37  32  81 S5        29.86
PILOT MOUND      N/A     30  27  86 S10         N/A  WCI  21
THE PAS        LGT RAIN  41  32  70 S13       29.68F
THOMPSON       FLURRIES  34  30  86 S3        29.71F
WINNIPEG       MOCLDY    36  28  75 S9        29.98F
CHURCHILL      PTCLDY    27  27 100 W6        29.70F WCI  20
GILLAM         CLOUDY    30  28  93 S6        29.76F WCI  24
$$
                ***SASKATCHEWAN***

CITY           SKY/WX    TMP DP  RH WIND       PRES   REMARKS
ESTEVAN        PTCLDY    41  30  65 SW15      29.87F
KINDERSLEY     PTCLDY    37  28  70 W7        29.79S
LLOYDMINSTER   CLEAR     39  30  70 W12       29.74R
PRINCE ALBERT  PTCLDY    39  30  70 SW6       29.70R
REGINA         CLEAR     36  30  80 SW7       29.79F
YORKTON        PTCLDY    37  28  70 S12       29.77F
N. BATTLEFORD  CLEAR     32  28  86 VRB2      29.75S
LA RONGE       MOCLDY    46  36  66 SW9       29.57S
SASKATOON      PTCLDY    32  28  86 SW8       29.75R WCI  25
SWIFT CURRENT  PTCLDY    46  32  57 W22G30    29.84R
$$
NOTE: THESE ARE AUTOMATED STATIONS WITH LIMITED QUALITY CONTROL
      "FAIR" INDICATES FEW OR NO CLOUDS BELOW 12,000 FEET WITH NO
      SIGNIFICANT WEATHER AND/OR OBSTRUCTIONS TO VISIBILITY.
      SKY/WX - SKY CONDITION AND SIGNIFICANT WEATHER.
      TMP - AIR TEMPERATURE.    DP   - DEWPOINT TEMPERATURE.
      RH  - RELATIVE HUMIDITY.  PRES - PRESSURE.
      HX  - HEAT INDEX.         WCI  - WIND CHILL INDEX.
$




USA.gov is the U.S. government's official web portal to all federal, state and local government web resources and services.